パンスターズ彗星

P/2015 A3 ( PanSTARRS )

English version
Home page
Updated on February 1, 2015

---------------------------------------------------------------------

・ プロフィール

発見日 2015年1月8日
発見光度 21.0等
発見者 Pan-STARRS 1 telescope (Haleakala)

・ 軌道要素

Epoch 2015 Feb. 27.0 TT = JDT 2457080.5
T 2015 Feb. 22.48949 TT                                 MPCW
q   1.1557587            (2000.0)            P               Q
n   0.04478874     Peri.  249.27659     +0.87652095     +0.46370493
a   7.8527806      Node   277.09644     +0.47571354     -0.79345620
e   0.8528217      Incl.  172.51988     +0.07353670     -0.39421441
P  22.0
From 35 observations 2015 Jan. 8-24, mean residual 0".4.

・ 光度変化

        m1 = 20.0 + 5 logΔ + 10.0 log r

---------------------------------------------------------------------

軌道要素はM.P.E.C. 2015-B134に掲載されたものです。
光度グラフはComet for Windowsで作成したものです。

---------------------------------------------------------------------

Copyright(C) Seiichi Yoshida (comet@aerith.net). All rights reserved.